| time (UTC) | temp F | wind direction | speed MPH | gust MPH | rain 1hr in | rain 24hr in | rain mn in | humidity % | barometer mb |
| 20260510060024 | 51 | 111 | 0.0 | 0.0 | 0.00 | 0.07 | 0.00 | 88 | 1010.8 |
| 20260510054519 | 52 | 111 | 0.0 | 0.0 | 0.00 | 0.07 | 0.00 | 88 | 1010.6 |
| 20260510053017 | 53 | 111 | 0.0 | 0.0 | 0.00 | 0.07 | 0.00 | 88 | 1010.2 |
| 20260510051517 | 53 | 111 | 0.0 | 0.0 | 0.00 | 0.07 | 0.00 | 88 | 1010.3 |
| 20260510050015 | 53 | 111 | 0.0 | 0.0 | 0.00 | 0.07 | 0.00 | 88 | 1010.3 |
| 20260510044515 | 53 | 111 | 0.0 | 0.0 | 0.00 | 0.07 | 0.00 | 88 | 1010.4 |
| 20260510043014 | 53 | 111 | 0.0 | 0.0 | 0.00 | 0.07 | 0.00 | 87 | 1010.4 |
| 20260510041512 | 54 | 111 | 0.0 | 0.0 | 0.00 | 0.07 | 0.00 | 87 | 1010.5 |
| 20260510040012 | 54 | 111 | 0.0 | 0.0 | 0.00 | 0.07 | 0.07 | 87 | 1010.5 |
| 20260510034509 | 54 | 111 | 0.0 | 0.0 | 0.00 | 0.07 | 0.07 | 87 | 1010.6 |
| 20260510033011 | 54 | 111 | 0.0 | 0.0 | 0.00 | 0.07 | 0.07 | 87 | 1010.5 |
| 20260510031516 | 54 | 111 | 0.0 | 0.0 | 0.00 | 0.07 | 0.07 | 87 | 1010.6 |
| 20260510030011 | 54 | 111 | 0.0 | 0.0 | 0.00 | 0.07 | 0.07 | 86 | 1010.6 |
| 20260510024507 | 54 | 111 | 0.0 | 0.0 | 0.00 | 0.07 | 0.07 | 85 | 1010.5 |
| 20260510023007 | 55 | 111 | 0.0 | 2.0 | 0.00 | 0.07 | 0.07 | 85 | 1010.3 |
| 20260510021514 | 55 | 111 | 0.0 | 1.0 | 0.00 | 0.07 | 0.07 | 84 | 1010.3 |
| 20260510020007 | 56 | 111 | 0.0 | 1.0 | 0.00 | 0.07 | 0.07 | 83 | 1010.2 |
| 20260510014507 | 56 | 103 | 0.0 | 2.0 | 0.00 | 0.07 | 0.07 | 82 | 1010.0 |
| 20260510013005 | 57 | 103 | 0.0 | 2.0 | 0.00 | 0.07 | 0.07 | 82 | 1009.8 |
| 20260510011505 | 57 | 103 | 0.0 | 3.0 | 0.00 | 0.07 | 0.07 | 81 | 1009.6 |
| 20260510010005 | 57 | 103 | 0.0 | 1.0 | 0.00 | 0.07 | 0.07 | 81 | 1009.4 |
| 20260510004506 | 57 | 103 | 0.0 | 0.0 | 0.00 | 0.07 | 0.07 | 81 | 1009.4 |
| 20260510003004 | 58 | 103 | 0.0 | 1.0 | 0.00 | 0.07 | 0.07 | 80 | 1009.3 |
| 20260510001504 | 58 | 103 | 0.0 | 0.0 | 0.00 | 0.07 | 0.07 | 79 | 1009.0 |
| 20260510000006 | 59 | 103 | 0.0 | 1.0 | 0.00 | 0.07 | 0.07 | 78 | 1009.0 |
| 20260509234502 | 59 | 103 | 0.0 | 2.0 | 0.00 | 0.07 | 0.07 | 77 | 1009.0 |
| 20260509233001 | 60 | 103 | 0.0 | 4.0 | 0.00 | 0.07 | 0.07 | 75 | 1008.8 |
| 20260509231600 | 60 | 113 | 0.0 | 0.0 | 0.00 | 0.07 | 0.07 | 74 | 1008.8 |
| 20260509230059 | 61 | 113 | 0.0 | 0.0 | 0.00 | 0.07 | 0.07 | 74 | 1008.9 |
| 20260509224602 | 61 | 113 | 0.0 | 1.0 | 0.00 | 0.07 | 0.07 | 72 | 1008.9 |
| 20260509223106 | 62 | 130 | 0.0 | 2.0 | 0.00 | 0.07 | 0.07 | 72 | 1008.8 |
| 20260509221606 | 63 | 130 | 0.0 | 1.0 | 0.00 | 0.07 | 0.07 | 72 | 1008.8 |
| 20260509220055 | 63 | 130 | 0.0 | 3.0 | 0.00 | 0.07 | 0.07 | 72 | 1009.0 |
| 20260509214606 | 63 | 130 | 0.0 | 3.0 | 0.00 | 0.07 | 0.07 | 74 | 1009.1 |
| 20260509213055 | 62 | 130 | 0.0 | 1.0 | 0.00 | 0.07 | 0.07 | 75 | 1009.2 |
| 20260509211558 | 61 | 130 | 0.0 | 0.0 | 0.00 | 0.07 | 0.07 | 76 | 1009.6 |
| 20260509210112 | 61 | 130 | 1.0 | 3.0 | 0.00 | 0.07 | 0.07 | 75 | 1009.3 |
| 20260509204558 | 61 | 124 | 0.0 | 1.0 | 0.00 | 0.07 | 0.07 | 74 | 1009.1 |
| 20260509203052 | 62 | 124 | 0.0 | 3.0 | 0.00 | 0.07 | 0.07 | 74 | 1009.3 |
| 20260509201557 | 63 | 144 | 0.0 | 0.0 | 0.00 | 0.07 | 0.07 | 72 | 1009.2 |
| 20260509200100 | 63 | 144 | 0.0 | 1.0 | 0.00 | 0.07 | 0.07 | 72 | 1009.5 |
| 20260509194547 | 62 | 151 | 0.0 | 2.0 | 0.00 | 0.07 | 0.07 | 74 | 1009.7 |
| 20260509193045 | 62 | 217 | 0.0 | 3.0 | 0.00 | 0.07 | 0.07 | 75 | 1009.9 |
| 20260509191645 | 61 | 130 | 0.0 | 3.0 | 0.00 | 0.07 | 0.07 | 75 | 1010.0 |
| 20260509190049 | 60 | 106 | 0.0 | 3.0 | 0.00 | 0.07 | 0.07 | 76 | 1010.1 |
| 20260509184538 | 60 | 150 | 0.0 | 3.0 | 0.00 | 0.07 | 0.07 | 82 | 1010.3 |
| 20260509183035 | 58 | 224 | 0.0 | 4.0 | 0.00 | 0.07 | 0.07 | 86 | 1010.6 |
| 20260509181538 | 55 | 103 | 0.0 | 0.0 | 0.00 | 0.07 | 0.07 | 86 | 1010.8 |
| 20260509180133 | 55 | 103 | 0.0 | 0.0 | 0.00 | 0.07 | 0.07 | 87 | 1010.9 |
| 20260509174533 | 54 | 225 | 0.0 | 2.0 | 0.00 | 0.07 | 0.07 | 86 | 1010.8 |
| 20260509173032 | 54 | 225 | 0.0 | 2.0 | 0.00 | 0.07 | 0.07 | 85 | 1011.1 |
| 20260509171538 | 55 | 226 | 0.0 | 1.0 | 0.00 | 0.07 | 0.07 | 86 | 1011.2 |
| 20260509170032 | 55 | 226 | 0.0 | 1.0 | 0.00 | 0.07 | 0.07 | 86 | 1011.2 |
| 20260509164531 | 55 | 226 | 2.0 | 3.0 | 0.00 | 0.07 | 0.07 | 84 | 1011.1 |
| 20260509163030 | 55 | 222 | 0.0 | 5.0 | 0.01 | 0.07 | 0.07 | 85 | 1011.3 |
| 20260509161530 | 54 | 233 | 0.0 | 3.0 | 0.04 | 0.07 | 0.07 | 85 | 1011.4 |
| 20260509160030 | 53 | 233 | 0.0 | 0.0 | 0.07 | 0.07 | 0.07 | 87 | 1011.2 |
| 20260509154528 | 53 | 233 | 0.0 | 0.0 | 0.07 | 0.07 | 0.07 | 86 | 1011.0 |
| 20260509153027 | 53 | 233 | 0.0 | 0.0 | 0.06 | 0.06 | 0.06 | 84 | 1011.4 |
| 20260509151526 | 54 | 233 | 0.0 | 0.0 | 0.03 | 0.03 | 0.03 | 83 | 1011.5 |
| 20260509150033 | 55 | 233 | 0.0 | 0.0 | 0.00 | 0.00 | 0.00 | 80 | 1011.6 |
| 20260509144531 | 56 | 233 | 0.0 | 1.0 | 0.00 | 0.00 | 0.00 | 78 | 1011.9 |
| 20260509143024 | 56 | 233 | 0.0 | 2.0 | 0.00 | 0.00 | 0.00 | 77 | 1012.0 |
| 20260509141523 | 57 | 233 | 0.0 | 3.0 | 0.00 | 0.00 | 0.00 | 74 | 1011.7 |
| 20260509140022 | 57 | 224 | 1.0 | 6.0 | 0.00 | 0.00 | 0.00 | 71 | 1011.2 |
| 20260509134522 | 56 | 235 | 0.0 | 5.0 | 0.00 | 0.00 | 0.00 | 74 | 1011.1 |
| 20260509133021 | 56 | 254 | 0.0 | 2.0 | 0.00 | 0.00 | 0.00 | 74 | 1010.9 |
| 20260509131525 | 55 | 254 | 1.0 | 3.0 | 0.00 | 0.00 | 0.00 | 74 | 1011.0 |
| 20260509130020 | 55 | 254 | 0.0 | 3.0 | 0.00 | 0.00 | 0.00 | 75 | 1010.9 |
| 20260509124522 | 55 | 238 | 0.0 | 0.0 | 0.00 | 0.00 | 0.00 | 76 | 1011.0 |
| 20260509123019 | 55 | 230 | 0.0 | 3.0 | 0.00 | 0.00 | 0.00 | 76 | 1010.9 |
| 20260509121525 | 54 | 121 | 0.0 | 2.0 | 0.00 | 0.00 | 0.00 | 78 | 1011.0 |
| 20260509120019 | 54 | 121 | 0.0 | 1.0 | 0.00 | 0.00 | 0.00 | 76 | 1011.1 |
| 20260509114525 | 54 | 117 | 0.0 | 0.0 | 0.00 | 0.00 | 0.00 | 78 | 1010.6 |
| 20260509113018 | 53 | 117 | 0.0 | 0.0 | 0.00 | 0.00 | 0.00 | 77 | 1010.6 |
| 20260509111517 | 53 | 117 | 0.0 | 0.0 | 0.00 | 0.00 | 0.00 | 77 | 1010.7 |
| 20260509110017 | 53 | 117 | 0.0 | 0.0 | 0.00 | 0.00 | 0.00 | 76 | 1010.3 |
| 20260509104517 | 53 | 117 | 0.0 | 0.0 | 0.00 | 0.00 | 0.00 | 78 | 1010.4 |
| 20260509103015 | 53 | 117 | 0.0 | 0.0 | 0.00 | 0.00 | 0.00 | 78 | 1010.4 |
| 20260509101526 | 53 | 117 | 0.0 | 0.0 | 0.00 | 0.00 | 0.00 | 78 | 1010.3 |
| 20260509100021 | 53 | 117 | 0.0 | 0.0 | 0.00 | 0.00 | 0.00 | 78 | 1010.3 |
| 20260509094517 | 53 | 117 | 0.0 | 0.0 | 0.00 | 0.00 | 0.00 | 78 | 1010.1 |
| 20260509093011 | 53 | 117 | 0.0 | 0.0 | 0.00 | 0.00 | 0.00 | 79 | 1010.2 |
| 20260509091518 | 53 | 117 | 0.0 | 0.0 | 0.00 | 0.00 | 0.00 | 79 | 1010.4 |
| 20260509090008 | 53 | 117 | 0.0 | 0.0 | 0.00 | 0.00 | 0.00 | 79 | 1010.4 |
| 20260509084513 | 53 | 117 | 0.0 | 0.0 | 0.00 | 0.00 | 0.00 | 79 | 1010.6 |
| 20260509083006 | 53 | 117 | 0.0 | 0.0 | 0.00 | 0.00 | 0.00 | 79 | 1010.8 |
| 20260509081505 | 54 | 117 | 0.0 | 0.0 | 0.00 | 0.00 | 0.00 | 79 | 1010.9 |
| 20260509080003 | 54 | 117 | 0.0 | 0.0 | 0.00 | 0.00 | 0.00 | 79 | 1010.9 |
| 20260509074503 | 54 | 117 | 0.0 | 0.0 | 0.00 | 0.00 | 0.00 | 79 | 1010.9 |
| 20260509073103 | 54 | 117 | 0.0 | 0.0 | 0.00 | 0.00 | 0.00 | 79 | 1011.0 |
| 20260509071608 | 54 | 117 | 0.0 | 0.0 | 0.00 | 0.00 | 0.00 | 79 | 1011.0 |
| 20260509070059 | 54 | 117 | 0.0 | 0.0 | 0.00 | 0.00 | 0.00 | 79 | 1011.1 |
| 20260509064614 | 55 | 117 | 0.0 | 0.0 | 0.00 | 0.00 | 0.00 | 78 | 1011.1 |
| 20260509063056 | 55 | 117 | 0.0 | 0.0 | 0.00 | 0.00 | 0.00 | 78 | 1011.1 |
| 20260509061613 | 55 | 117 | 0.0 | 0.0 | 0.00 | 0.00 | 0.00 | 77 | 1010.9 |